[[{"header":{"parameterUnit":"m.s-1","parameterCategory":1,"la1":30.2991,"la2":30.254,"lo1":-89.0895,"lo2":-89.0444,"dy":0.0017,"dx":0.0017,"nx":28,"ny":28,"refTime":"2023-10-30T09:00:00:Z","depth":0,"parameterNumber":2,"parameterNumberName":"U-component_of_WINDS"},"data":[0,0,0,0,0,0,0,0,0,0,0,0,0,0,0,0,0,0,0,0,0,0,0,0,0,0,0,0,0,0,0,0,0,0,0,0,0,0,0,0,0,0,0,0,0,0,0,0,0,0,0,0,0,0,0,0,0,0,0.7428,0.7427,0,0.7355,0.7354,0.7353,0.7328,0.7329,0.7329,0.7329,0.7251,0.7249,0.7247,0,0,0,0,0,0,0,0,0,0,0,0,0,0.7546,0.7544,0.7428,0.7427,0.7426,0.7355,0.7354,0.7353,0.7328,0.7329,0.7329,0.7329,0.7252,0.7249,0.7246,0,0,0,0,0,0,0,0,0,0,0,0,0,0.7486,0.7544,0.7428,0.7406,0.7403,0.7355,0.7354,0.7352,0.7328,0.7329,0.7329,0.733,0.7253,0.725,0.7246,0.7214,0,0,0.7235,0.7234,0,0,0,0,0,0,0,0,0.749,0.7482,0.741,0.7407,0.7404,0.7351,0.7367,0.7306,0.7328,0.7357,0.7329,0.733,0.7284,0.7278,0.7263,0.7211,0.7207,0.7235,0.7233,0.7231,0.723,0,0,0,0,0,0,0,0.7494,0.7485,0.7399,0.7409,0.7405,0.7399,0.7391,0.7355,0.7318,0.7354,0.7352,0.7344,0.7282,0.7266,0.7261,0.7206,0.7235,0.7232,0.723,0.7228,0.7125,0.7124,0,0,0,0,0,0,0.7502,0.7488,0.7401,0.7397,0.7449,0.7396,0.7387,0.7368,0.7319,0.7312,0.7344,0.7343,0.7272,0.7265,0.7258,0.7218,0.7231,0.7228,0.7226,0.7126,0.7125,0.7124,0,0,0,0,0,0,0.7505,0.7494,0.7404,0.7442,0.743,0.7394,0.7372,0.7366,0.735,0.7311,0.7304,0.7334,0.7272,0.7263,0.7226,0.7215,0.7226,0.7223,0.7126,0.7125,0.7125,0.7137,0,0,0,0,0,0,0.7508,0.7496,0.7483,0.7442,0.7428,0.7374,0.7371,0.7364,0.7344,0.7343,0.73,0.7293,0.7272,0.7231,0.7222,0.721,0.722,0.7127,0.7126,0.7125,0.7138,0.7137,0.7136,0,0,0,0,0,0.7512,0.7489,0.7483,0.7472,0.7412,0.7373,0.7365,0.7342,0.7343,0.7331,0.7306,0.7295,0.7218,0.7228,0.7217,0.7204,0.7128,0.7126,0.7125,0.7138,0.7137,0.7136,0,0,0,0,0,0,0.7529,0.7483,0.7476,0.7439,0.741,0.7369,0.7352,0.7341,0.7311,0.7311,0.7283,0.7273,0.7238,0.7217,0.7229,0.7171,0.7172,0.7169,0.7186,0.7184,0.7184,0.7189,0.7217,0,0,0,0,0,0.7529,0.7501,0.7462,0.7433,0.742,0.7389,0.7371,0.7355,0.7324,0.7312,0.7284,0.7253,0.7223,0.7203,0.7172,0.7135,0.7125,0.7121,0.712,0.712,0.7117,0.7096,0.7094,0.712,0.712,0.712,0,0,0.7527,0.7498,0.7483,0.7436,0.7412,0.7384,0.7378,0.7348,0.7327,0.7307,0.727,0.7249,0.7213,0.7176,0.7158,0.7158,0.7108,0.7118,0.7118,0.7115,0.7094,0.7092,0.709,0.7119,0.7119,0.7119,0,0,0.7509,0.7485,0.7458,0.7435,0.7399,0.7379,0.7373,0.7334,0.7319,0.7282,0.7267,0.7241,0.7188,0.7163,0.7144,0.7119,0.7107,0.711,0.7105,0.7086,0.7084,0.7082,0.7072,0.7069,0.7107,0.7107,0.7107,0,0.7511,0.7468,0.7446,0.7417,0.7397,0.7379,0.7351,0.733,0.7285,0.7272,0.7272,0.7206,0.7181,0.7138,0.7132,0.7117,0.7109,0.7114,0.7086,0.7084,0.7081,0.7072,0.7069,0.7107,0.7107,0.7107,0.7107,0,0.7472,0.7443,0.7426,0.7385,0.7363,0.7335,0.7308,0.7289,0.7276,0.7256,0.7218,0.7188,0.7151,0.714,0.7126,0.7095,0.7096,0.7092,0.7092,0.708,0.7071,0.7067,0.7108,0.7108,0.7108,0.7108,0,0,0.7461,0.7409,0.7403,0.7385,0.7345,0.7322,0.7293,0.7258,0.7242,0.7213,0.7188,0.7144,0.7141,0.7119,0.7103,0.7085,0.7067,0.7083,0.7082,0.7081,0.7031,0.7033,0.703,0.706,0.706,0.7059,0.7033,0,0.7437,0.7386,0.7366,0.7324,0.7297,0.728,0.7255,0.7228,0.7209,0.7183,0.7161,0.7131,0.7128,0.7115,0.7097,0.7073,0.7057,0.7075,0.7036,0.7035,0.7044,0.7025,0.7027,0.7005,0.703,0.7029,0.7029,0,0.7402,0.7374,0.733,0.7295,0.7282,0.726,0.7227,0.7203,0.7171,0.7159,0.7135,0.7121,0.709,0.7094,0.7051,0.7064,0.7047,0.7033,0.7031,0.7026,0.703,0.7018,0.6997,0.6993,0.7023,0.7023,0.7024,0,0.7398,0.7349,0.7316,0.7301,0.7259,0.7244,0.7225,0.7195,0.7176,0.7147,0.7134,0.7101,0.7083,0.7058,0.7035,0.704,0.6994,0.6996,0.6982,0.6983,0.6972,0.6973,0.6947,0.6963,0.6963,0.6963,0.6963,0,0.7373,0.7347,0.7314,0.7293,0.7263,0.7241,0.7211,0.7192,0.7165,0.7141,0.7124,0.7102,0.7073,0.7047,0.7029,0.6996,0.6988,0.6976,0.6971,0.6977,0.6978,0.6964,0.6965,0.6962,0.6962,0.6963,0.6963,0,0.7362,0.7339,0.7302,0.7266,0.7257,0.7236,0.7205,0.7184,0.7165,0.7134,0.7126,0.7095,0.7064,0.7039,0.6997,0.6985,0.695,0.6945,0.696,0.6958,0.6945,0.6946,0.6908,0.6902,0.6924,0.6924,0.6923,0,0.7347,0.7327,0.7289,0.7272,0.7254,0.7226,0.7207,0.7184,0.7164,0.7128,0.7112,0.708,0.7052,0.7002,0.6976,0.6944,0.6938,0.6927,0.6932,0.6939,0.6936,0.6938,0.6935,0.6925,0.6925,0.6925,0.6925,0,0.7323,0.7313,0.7286,0.7255,0.7233,0.7207,0.7181,0.7168,0.714,0.7119,0.7087,0.7066,0.7024,0.6992,0.6957,0.6938,0.6927,0.6924,0.6919,0.6923,0.6933,0.6927,0.6957,0.6924,0.6924,0.6925,0.6925,0.6925,0.7309,0.729,0.7261,0.7231,0.721,0.7186,0.7165,0.7145,0.7118,0.7082,0.7071,0.7037,0.7008,0.6961,0.6941,0.6915,0.6914,0.6907,0.6905,0.6903,0.6903,0.6939,0.6908,0.6908,0.6908,0.6908,0.6908,0,0.7283,0.7264,0.7237,0.7202,0.7179,0.7172,0.7144,0.7125,0.7096,0.707,0.7043,0.7007,0.6976,0.6948,0.6915,0.6899,0.6894,0.6892,0.6892,0.6887,0.6906,0.6913,0.6897,0.6897,0.6897,0.6897,0.6897,0.6897,0.7267,0.7235,0.7221,0.7178,0.7159,0.7127,0.7112,0.709,0.7069,0.7029,0.7003,0.6986,0.6959,0.6925,0.6896,0.6889,0.6877,0.6876,0.6867,0.6885,0.6886,0.6887,0.6894,0.6874,0.6874,0.6851,0.685,0.685]},{"header":{"parameterUnit":"m.s-1","parameterCategory":1,"la1":30.2991,"la2":30.254,"lo1":-89.0895,"lo2":-89.0444,"dy":0.0017,"dx":0.0017,"nx":28,"ny":28,"refTime":"2023-10-30T09:00:00:Z","depth":0,"parameterNumber":3,"parameterNumberName":"V-component_of_WINDS"},"data":[0,0,0,0,0,0,0,0,0,0,0,0,0,0,0,0,0,0,0,0,0,0,0,0,0,0,0,0,0,0,0,0,0,0,0,0,0,0,0,0,0,0,0,0,0,0,0,0,0,0,0,0,0,0,0,0,0,0,-7.9934,-7.9935,0,-8.011,-8.0112,-8.0114,-8.0056,-8.0052,-8.0048,-8.0044,-8.0219,-8.0227,-8.0235,0,0,0,0,0,0,0,0,0,0,0,0,0,-7.9539,-7.9547,-7.9933,-7.9936,-7.9938,-8.011,-8.0113,-8.0115,-8.0056,-8.0052,-8.0047,-8.0043,-8.0216,-8.0226,-8.0236,0,0,0,0,0,0,0,0,0,0,0,0,0,-7.9713,-7.9549,-7.9933,-7.993,-7.9931,-8.011,-8.0113,-8.0116,-8.0057,-8.0052,-8.0046,-8.0041,-8.0213,-8.0225,-8.0237,-8.0428,0,0,-8.0275,-8.028,0,0,0,0,0,0,0,0,-7.9703,-7.9727,-7.9928,-7.993,-7.9932,-8.0055,-8.0038,-8.022,-8.0059,-8.0009,-8.0044,-8.0038,-8.0169,-8.0184,-8.023,-8.0436,-8.0443,-8.0276,-8.0283,-8.0289,-8.0292,0,0,0,0,0,0,0,-7.9691,-7.9719,-8.0003,-7.9931,-7.9933,-7.9917,-7.9936,-8.0072,-8.0119,-8.0013,-8.0009,-8.0031,-8.0169,-8.0218,-8.0233,-8.0446,-8.0276,-8.0286,-8.0294,-8.0299,-8.0818,-8.0825,0,0,0,0,0,0,-7.9679,-7.971,-7.9997,-8.0008,-7.9801,-7.9929,-7.995,-8.0021,-8.0117,-8.0126,-8.0036,-8.0028,-8.02,-8.0219,-8.0239,-8.047,-8.0288,-8.03,-8.0307,-8.0812,-8.082,-8.0827,0,0,0,0,0,0,-7.967,-7.9705,-7.999,-7.9858,-7.9893,-7.9942,-8.0023,-8.0028,-8.0077,-8.0135,-8.0142,-8.0078,-8.0196,-8.0222,-8.0382,-8.0475,-8.0306,-8.0317,-8.0805,-8.0815,-8.0823,-8.0932,0,0,0,0,0,0,-7.9659,-7.9702,-7.9776,-7.986,-7.9901,-8.0132,-8.0029,-8.0035,-8.01,-8.0091,-8.0176,-8.0185,-8.0194,-8.0364,-8.0394,-8.0489,-8.0326,-8.0796,-8.0809,-8.082,-8.092,-8.0944,-8.0965,0,0,0,0,0,-7.9645,-7.9798,-7.978,-7.9815,-7.9995,-8.0138,-8.016,-8.0169,-8.0107,-8.0182,-8.0219,-8.0182,-8.046,-8.0381,-8.0415,-8.0514,-8.0791,-8.0805,-8.0819,-8.091,-8.094,-8.0964,0,0,0,0,0,0,-7.9721,-7.9809,-7.979,-7.9975,-8.005,-8.0128,-8.0221,-8.02,-8.0292,-8.0279,-8.0284,-8.0304,-8.0469,-8.0507,-8.0418,-8.0704,-8.0616,-8.0638,-8.0674,-8.0702,-8.0723,-8.0711,-8.0337,0,0,0,0,0,-7.9759,-7.987,-7.994,-8.0096,-8.0135,-8.0172,-8.0235,-8.0236,-8.0312,-8.0343,-8.0391,-8.0465,-8.0569,-8.0637,-8.0736,-8.0926,-8.0943,-8.1011,-8.1033,-8.1051,-8.1069,-8.1174,-8.1205,-8.0874,-8.0874,-8.0874,0,0,-7.9839,-7.9901,-7.997,-8.0113,-8.0171,-8.0284,-8.0199,-8.0322,-8.0405,-8.036,-8.0516,-8.0554,-8.0637,-8.0813,-8.0893,-8.085,-8.1165,-8.1069,-8.1083,-8.1092,-8.1192,-8.1223,-8.1251,-8.0884,-8.0882,-8.0881,0,0,-8.0043,-8.0101,-8.0238,-8.0299,-8.0389,-8.0413,-8.0446,-8.0528,-8.0553,-8.0709,-8.0678,-8.0777,-8.0956,-8.1017,-8.1071,-8.13,-8.127,-8.1332,-8.1447,-8.1549,-8.1575,-8.1598,-8.168,-8.171,-8.135,-8.1351,-8.1351,0,-8.013,-8.0302,-8.0311,-8.0438,-8.0502,-8.0469,-8.0608,-8.0665,-8.0782,-8.0826,-8.0777,-8.1002,-8.1055,-8.1246,-8.1302,-8.1347,-8.1384,-8.1322,-8.1571,-8.1594,-8.1615,-8.1694,-8.1725,-8.1358,-8.1357,-8.1356,-8.1355,0,-8.0405,-8.0524,-8.0624,-8.0741,-8.0816,-8.0948,-8.0976,-8.105,-8.1045,-8.1074,-8.1234,-8.1297,-8.1409,-8.1454,-8.1448,-8.1644,-8.1615,-8.1569,-8.148,-8.1654,-8.1728,-8.1758,-8.1368,-8.1365,-8.1363,-8.1361,0,0,-8.066,-8.0782,-8.0819,-8.0872,-8.097,-8.1062,-8.1192,-8.1304,-8.1368,-8.1449,-8.1559,-8.1712,-8.167,-8.1732,-8.1733,-8.1822,-8.2001,-8.1765,-8.1767,-8.1807,-8.2222,-8.2257,-8.2291,-8.1982,-8.1988,-8.1993,-8.2215,0,-8.0872,-8.1104,-8.1117,-8.1327,-8.1437,-8.1409,-8.1522,-8.1594,-8.1625,-8.1721,-8.1754,-8.1863,-8.1799,-8.1837,-8.1924,-8.1961,-8.2085,-8.1945,-8.2083,-8.2088,-8.2064,-8.233,-8.2367,-8.2574,-8.2244,-8.2249,-8.2252,0,-8.1151,-8.1245,-8.1467,-8.1551,-8.1597,-8.17,-8.1804,-8.1897,-8.1978,-8.1994,-8.2064,-8.2054,-8.2186,-8.2093,-8.2275,-8.218,-8.2237,-8.2264,-8.2272,-8.2285,-8.2181,-8.2351,-8.264,-8.2671,-8.2298,-8.2294,-8.2291,0,-8.1316,-8.1497,-8.1654,-8.17,-8.1802,-8.1875,-8.192,-8.1995,-8.2062,-8.2152,-8.2196,-8.23,-8.2357,-8.2437,-8.2454,-8.2384,-8.2636,-8.2544,-8.2653,-8.2653,-8.2707,-8.2703,-8.301,-8.2743,-8.2743,-8.2742,-8.2741,0,-8.1552,-8.1689,-8.173,-8.1826,-8.1979,-8.1992,-8.2142,-8.2181,-8.2249,-8.2351,-8.2332,-8.2428,-8.2445,-8.2544,-8.2558,-8.2707,-8.2733,-8.2749,-8.2751,-8.2751,-8.2749,-8.2788,-8.2775,-8.275,-8.2748,-8.2747,-8.2745,0,-8.1762,-8.1795,-8.1964,-8.2047,-8.2072,-8.218,-8.2251,-8.2343,-8.2372,-8.2502,-8.2533,-8.2578,-8.2695,-8.272,-8.2857,-8.2866,-8.3044,-8.3031,-8.3018,-8.3017,-8.3124,-8.3114,-8.3467,-8.3514,-8.3216,-8.3219,-8.3221,0,-8.1911,-8.2016,-8.2112,-8.2181,-8.223,-8.2341,-8.241,-8.2427,-8.2499,-8.26,-8.268,-8.2795,-8.2888,-8.3075,-8.3119,-8.3224,-8.3214,-8.333,-8.3229,-8.3227,-8.3216,-8.321,-8.3221,-8.3349,-8.3353,-8.3355,-8.3357,0,-8.2172,-8.2184,-8.2286,-8.2395,-8.2479,-8.2564,-8.2645,-8.2702,-8.273,-8.2812,-8.2933,-8.3005,-8.3147,-8.3262,-8.3367,-8.3411,-8.339,-8.3389,-8.342,-8.3421,-8.341,-8.3418,-8.3071,-8.3381,-8.3378,-8.3377,-8.3375,-8.3374,-8.2356,-8.2449,-8.2532,-8.2647,-8.271,-8.2787,-8.2879,-8.2921,-8.3022,-8.3141,-8.3144,-8.3276,-8.3353,-8.3494,-8.3545,-8.3647,-8.3611,-8.3655,-8.3666,-8.3677,-8.3687,-8.3393,-8.3666,-8.3665,-8.3665,-8.3664,-8.3664,0,-8.2617,-8.2669,-8.2775,-8.2891,-8.2982,-8.2956,-8.3045,-8.3121,-8.3238,-8.3314,-8.3407,-8.3546,-8.3657,-8.3711,-8.382,-8.3892,-8.3885,-8.392,-8.3915,-8.3926,-8.3713,-8.3676,-8.3924,-8.3924,-8.3924,-8.3924,-8.3924,-8.3924,-8.2763,-8.292,-8.2942,-8.3129,-8.318,-8.3311,-8.3364,-8.3435,-8.3496,-8.3653,-8.3747,-8.3782,-8.3849,-8.3963,-8.4064,-8.4077,-8.4118,-8.4159,-8.4167,-8.3967,-8.3941,-8.3915,-8.3881,-8.4168,-8.4168,-8.4371,-8.4373,-8.4374]}]]